Time,TemperatureF,DewpointF,PressureIn,WindDirection,WindDirectionDegrees,WindSpeedMPH,WindSpeedGustMPH,Humidity,HourlyPrecipIn,Conditions,Clouds,dailyrainin,SoftwareType,DateUTC
2013-02-26 00:05:00,29.9,17.0,30.17,South,169,0.0,0.0,58,0.00,,,0.00,weatherlink.com 1.10,2013-02-26 05:05:00,
2013-02-26 00:20:00,29.7,17.0,30.17,South,169,0.0,1.0,59,0.00,,,0.00,weatherlink.com 1.10,2013-02-26 05:20:00,
2013-02-26 00:35:00,29.5,17.0,30.17,South,169,0.0,1.0,59,0.00,,,0.00,weatherlink.com 1.10,2013-02-26 05:35:00,
2013-02-26 00:50:00,29.3,17.0,30.18,South,169,0.0,2.0,60,0.00,,,0.00,weatherlink.com 1.10,2013-02-26 05:50:00,
2013-02-26 01:05:00,29.4,17.0,30.19,South,169,0.0,2.0,60,0.00,,,0.00,weatherlink.com 1.10,2013-02-26 06:05:00,
2013-02-26 01:20:00,29.5,17.0,30.19,East,85,0.0,0.0,60,0.00,,,0.00,weatherlink.com 1.10,2013-02-26 06:20:00,
2013-02-26 01:35:00,29.6,17.0,30.19,SSE,153,0.0,2.0,60,0.00,,,0.00,weatherlink.com 1.10,2013-02-26 06:35:00,
2013-02-26 01:50:00,29.6,17.0,30.18,SSE,153,1.0,2.0,60,0.00,,,0.00,weatherlink.com 1.10,2013-02-26 06:50:00,
2013-02-26 02:05:00,29.8,17.0,30.17,SSE,153,0.0,0.0,60,0.00,,,0.00,weatherlink.com 1.10,2013-02-26 07:05:00,
2013-02-26 02:20:00,29.5,17.0,30.17,SSE,160,0.0,2.0,60,0.00,,,0.00,weatherlink.com 1.10,2013-02-26 07:20:00,
2013-02-26 02:35:00,29.5,17.0,30.15,SSE,160,0.0,0.0,61,0.00,,,0.00,weatherlink.com 1.10,2013-02-26 07:35:00,
2013-02-26 02:50:00,29.5,17.0,30.15,SW,217,0.0,2.0,60,0.00,,,0.00,weatherlink.com 1.10,2013-02-26 07:50:00,
2013-02-26 03:05:00,29.6,18.0,30.14,North,355,1.0,3.0,61,0.00,,,0.00,weatherlink.com 1.10,2013-02-26 08:05:00,
2013-02-26 03:20:00,30.0,18.0,30.15,South,175,0.0,2.0,61,0.00,,,0.00,weatherlink.com 1.10,2013-02-26 08:20:00,
2013-02-26 03:35:00,30.0,18.0,30.13,NE,39,2.0,3.0,61,0.00,,,0.00,weatherlink.com 1.10,2013-02-26 08:35:00,
2013-02-26 03:50:00,30.0,18.0,30.12,West,264,0.0,0.0,61,0.00,,,0.00,weatherlink.com 1.10,2013-02-26 08:50:00,
2013-02-26 04:05:00,29.9,18.0,30.12,NE,34,0.0,3.0,62,0.00,,,0.00,weatherlink.com 1.10,2013-02-26 09:05:00,
2013-02-26 04:20:00,30.1,18.0,30.12,ENE,68,0.0,2.0,62,0.00,,,0.00,weatherlink.com 1.10,2013-02-26 09:20:00,
2013-02-26 04:35:00,29.9,18.0,30.12,NNW,345,0.0,3.0,62,0.00,,,0.00,weatherlink.com 1.10,2013-02-26 09:35:00,
2013-02-26 04:50:00,30.0,19.0,30.13,SSE,165,0.0,3.0,63,0.00,,,0.00,weatherlink.com 1.10,2013-02-26 09:50:00,
2013-02-26 05:05:00,30.1,19.0,30.12,NNE,13,3.0,3.0,63,0.00,,,0.00,weatherlink.com 1.10,2013-02-26 10:05:00,
2013-02-26 05:20:00,30.4,19.0,30.12,SSE,149,0.0,2.0,63,0.00,,,0.00,weatherlink.com 1.10,2013-02-26 10:20:00,
2013-02-26 05:35:00,30.5,19.0,30.12,NNE,27,2.0,5.0,63,0.00,,,0.00,weatherlink.com 1.10,2013-02-26 10:35:00,
2013-02-26 05:50:00,30.6,19.0,30.12,NNE,15,0.0,5.0,63,0.00,,,0.00,weatherlink.com 1.10,2013-02-26 10:50:00,
2013-02-26 06:05:00,30.4,19.0,30.13,NNE,24,2.0,3.0,64,0.00,,,0.00,weatherlink.com 1.10,2013-02-26 11:05:00,
2013-02-26 06:20:00,30.6,20.0,30.12,NE,46,1.0,5.0,64,0.00,,,0.00,weatherlink.com 1.10,2013-02-26 11:20:00,
2013-02-26 06:35:00,30.6,20.0,30.11,NE,41,1.0,5.0,65,0.00,,,0.00,weatherlink.com 1.10,2013-02-26 11:35:00,
2013-02-26 06:50:00,30.5,20.0,30.11,NNE,31,3.0,3.0,66,0.00,,,0.00,weatherlink.com 1.10,2013-02-26 11:50:00,
2013-02-26 07:05:00,30.7,21.0,30.11,NNE,24,2.0,7.0,67,0.00,,,0.00,weatherlink.com 1.10,2013-02-26 12:05:00,
2013-02-26 07:20:00,30.8,21.0,30.10,North,9,0.0,3.0,67,0.00,,,0.00,weatherlink.com 1.10,2013-02-26 12:20:00,
2013-02-26 07:36:00,30.9,21.0,30.09,NNE,28,0.0,5.0,67,0.00,,,0.00,weatherlink.com 1.10,2013-02-26 12:36:00,
2013-02-26 07:51:00,31.0,21.0,30.10,NW,309,2.0,4.0,67,0.00,,,0.00,weatherlink.com 1.10,2013-02-26 12:51:00,
2013-02-26 08:06:00,31.0,21.0,30.11,NE,45,3.0,8.0,67,0.00,,,0.00,weatherlink.com 1.10,2013-02-26 13:06:00,
2013-02-26 08:21:00,31.1,22.0,30.11,NNE,29,1.0,6.0,68,0.00,,,0.00,weatherlink.com 1.10,2013-02-26 13:21:00,
2013-02-26 08:36:00,31.3,21.0,30.10,ENE,78,3.0,5.0,67,0.00,,,0.00,weatherlink.com 1.10,2013-02-26 13:36:00,
2013-02-26 08:51:00,31.5,22.0,30.10,NNE,28,0.0,7.0,67,0.00,,,0.00,weatherlink.com 1.10,2013-02-26 13:51:00,
2013-02-26 09:06:00,31.6,22.0,30.10,ENE,57,1.0,2.0,67,0.00,,,0.00,weatherlink.com 1.10,2013-02-26 14:06:00,
2013-02-26 09:21:00,31.5,22.0,30.11,ENE,69,4.0,8.0,67,0.00,,,0.00,weatherlink.com 1.10,2013-02-26 14:21:00,
2013-02-26 09:36:00,31.4,22.0,30.10,East,91,1.0,8.0,68,0.00,,,0.00,weatherlink.com 1.10,2013-02-26 14:36:00,
2013-02-26 09:51:00,31.3,23.0,30.09,NE,45,2.0,3.0,71,0.00,,,0.00,weatherlink.com 1.10,2013-02-26 14:51:00,
2013-02-26 10:06:00,30.9,24.0,30.08,SE,137,0.0,5.0,75,0.00,,,0.00,weatherlink.com 1.10,2013-02-26 15:06:00,
2013-02-26 10:21:00,30.6,25.0,30.07,NW,323,0.0,2.0,78,0.01,,,0.01,weatherlink.com 1.10,2013-02-26 15:21:00,
2013-02-26 10:36:00,30.3,25.0,30.07,NW,322,1.0,3.0,79,0.02,,,0.02,weatherlink.com 1.10,2013-02-26 15:36:00,
2013-02-26 10:51:00,30.3,24.0,30.07,NNW,329,0.0,3.0,77,0.02,,,0.02,weatherlink.com 1.10,2013-02-26 15:51:00,
2013-02-26 11:06:00,30.4,24.0,30.06,North,355,0.0,3.0,78,0.02,,,0.02,weatherlink.com 1.10,2013-02-26 16:06:00,
2013-02-26 11:21:00,30.5,25.0,30.06,North,5,0.0,1.0,81,0.03,,,0.04,weatherlink.com 1.10,2013-02-26 16:21:00,
2013-02-26 11:36:00,30.5,25.0,30.06,NNE,15,1.0,2.0,81,0.02,,,0.04,weatherlink.com 1.10,2013-02-26 16:36:00,
2013-02-26 11:51:00,30.3,25.0,30.05,North,5,0.0,1.0,82,0.03,,,0.05,weatherlink.com 1.10,2013-02-26 16:51:00,
2013-02-26 12:06:00,30.2,26.0,30.04,West,272,0.0,1.0,83,0.04,,,0.06,weatherlink.com 1.10,2013-02-26 17:06:00,
2013-02-26 12:21:00,30.3,26.0,30.01,SW,235,1.0,1.0,84,0.03,,,0.07,weatherlink.com 1.10,2013-02-26 17:21:00,
2013-02-26 12:36:00,30.7,28.0,30.00,SW,236,1.0,2.0,88,0.03,,,0.07,weatherlink.com 1.10,2013-02-26 17:36:00,
2013-02-26 12:51:00,32.2,30.0,29.98,NE,47,1.0,6.0,91,0.03,,,0.08,weatherlink.com 1.10,2013-02-26 17:51:00,
2013-02-26 13:06:00,32.7,30.0,29.95,NE,52,3.0,11.0,91,0.03,,,0.09,weatherlink.com 1.10,2013-02-26 18:06:00,
2013-02-26 13:21:00,33.0,31.0,29.93,East,80,9.0,11.0,92,0.02,,,0.09,weatherlink.com 1.10,2013-02-26 18:21:00,
2013-02-26 13:36:00,33.2,31.0,29.92,ENE,75,8.0,13.0,93,0.03,,,0.10,weatherlink.com 1.10,2013-02-26 18:36:00,
2013-02-26 13:51:00,33.4,32.0,29.90,ENE,69,4.0,10.0,94,0.02,,,0.10,weatherlink.com 1.10,2013-02-26 18:51:00,
2013-02-26 14:07:00,34.2,33.0,29.89,NE,37,6.0,12.0,94,0.02,,,0.11,weatherlink.com 1.10,2013-02-26 19:07:00,
2013-02-26 14:22:00,34.3,33.0,29.88,North,9,1.0,12.0,94,0.04,,,0.13,weatherlink.com 1.10,2013-02-26 19:22:00,
2013-02-26 14:37:00,34.3,33.0,29.86,NNE,19,2.0,9.0,95,0.05,,,0.15,weatherlink.com 1.10,2013-02-26 19:37:00,
2013-02-26 14:52:00,34.4,33.0,29.84,NE,53,6.0,9.0,95,0.07,,,0.17,weatherlink.com 1.10,2013-02-26 19:52:00,
2013-02-26 15:07:00,34.7,34.0,29.82,WNW,302,1.0,8.0,95,0.08,,,0.20,weatherlink.com 1.10,2013-02-26 20:07:00,
2013-02-26 15:22:00,35.2,34.0,29.82,NNW,342,0.0,10.0,95,0.08,,,0.21,weatherlink.com 1.10,2013-02-26 20:22:00,
2013-02-26 15:37:00,36.1,35.0,29.81,North,355,3.0,9.0,96,0.07,,,0.22,weatherlink.com 1.10,2013-02-26 20:37:00,
2013-02-26 15:52:00,35.9,35.0,29.80,SE,140,1.0,12.0,95,0.07,,,0.24,weatherlink.com 1.10,2013-02-26 20:52:00,
2013-02-26 16:07:00,36.1,35.0,29.78,NE,37,6.0,15.0,96,0.06,,,0.26,weatherlink.com 1.10,2013-02-26 21:07:00,
2013-02-26 16:22:00,36.8,36.0,29.77,ENE,61,12.0,16.0,96,0.06,,,0.27,weatherlink.com 1.10,2013-02-26 21:22:00,
2013-02-26 16:37:00,36.9,36.0,29.75,ENE,62,17.0,17.0,95,0.06,,,0.28,weatherlink.com 1.10,2013-02-26 21:37:00,
2013-02-26 16:52:00,37.2,36.0,29.74,NNE,24,3.0,16.0,95,0.05,,,0.29,weatherlink.com 1.10,2013-02-26 21:52:00,
2013-02-26 17:07:00,37.1,36.0,29.73,NNW,328,2.0,15.0,95,0.04,,,0.30,weatherlink.com 1.10,2013-02-26 22:07:00,
2013-02-26 17:22:00,37.0,36.0,29.72,NNE,21,3.0,13.0,95,0.05,,,0.32,weatherlink.com 1.10,2013-02-26 22:22:00,
2013-02-26 17:37:00,37.1,36.0,29.70,NE,39,11.0,17.0,94,0.06,,,0.34,weatherlink.com 1.10,2013-02-26 22:37:00,
2013-02-26 17:52:00,37.0,36.0,29.71,NE,54,10.0,20.0,95,0.06,,,0.35,weatherlink.com 1.10,2013-02-26 22:52:00,
2013-02-26 18:07:00,36.8,36.0,29.71,ESE,111,5.0,9.0,95,0.07,,,0.37,weatherlink.com 1.10,2013-02-26 23:07:00,
2013-02-26 18:22:00,37.5,36.0,29.72,NE,40,11.0,11.0,95,0.10,,,0.42,weatherlink.com 1.10,2013-02-26 23:22:00,
2013-02-26 18:37:00,37.8,37.0,29.73,ESE,108,1.0,13.0,95,0.12,,,0.46,weatherlink.com 1.10,2013-02-26 23:37:00,
2013-02-26 18:52:00,37.7,36.0,29.74,NNE,17,4.0,4.0,95,0.17,,,0.52,weatherlink.com 1.10,2013-02-26 23:52:00,
2013-02-26 19:07:00,37.8,37.0,29.73,NE,55,1.0,5.0,95,0.18,,,0.55,weatherlink.com 1.10,2013-02-27 00:07:00,
2013-02-26 19:22:00,37.9,37.0,29.72,NE,51,4.0,12.0,96,0.14,,,0.56,weatherlink.com 1.10,2013-02-27 00:22:00,
2013-02-26 19:37:00,37.8,37.0,29.71,ENE,72,2.0,9.0,96,0.11,,,0.57,weatherlink.com 1.10,2013-02-27 00:37:00,
2013-02-26 19:52:00,37.9,37.0,29.71,NE,41,4.0,9.0,96,0.05,,,0.57,weatherlink.com 1.10,2013-02-27 00:52:00,
2013-02-26 20:07:00,38.1,37.0,29.70,East,83,3.0,8.0,96,0.03,,,0.58,weatherlink.com 1.10,2013-02-27 01:07:00,
2013-02-26 20:22:00,38.7,37.0,29.68,ENE,67,1.0,7.0,95,0.02,,,0.58,weatherlink.com 1.10,2013-02-27 01:22:00,
2013-02-26 20:37:00,38.8,38.0,29.66,East,86,6.0,7.0,95,0.01,,,0.58,weatherlink.com 1.10,2013-02-27 01:37:00,
2013-02-26 20:52:00,38.8,38.0,29.66,East,94,3.0,7.0,95,0.01,,,0.58,weatherlink.com 1.10,2013-02-27 01:52:00,
2013-02-26 21:07:00,39.0,38.0,29.66,ENE,65,1.0,7.0,95,0.00,,,0.58,weatherlink.com 1.10,2013-02-27 02:07:00,
2013-02-26 21:37:00,39.3,38.0,29.65,ENE,60,1.0,7.0,96,0.01,,,0.59,weatherlink.com 1.10,2013-02-27 02:37:00,
2013-02-26 21:52:00,39.2,38.0,29.65,NE,38,2.0,4.0,96,0.01,,,0.59,weatherlink.com 1.10,2013-02-27 02:52:00,
2013-02-26 22:07:00,38.9,38.0,29.64,ENE,75,1.0,2.0,96,0.01,,,0.59,weatherlink.com 1.10,2013-02-27 03:07:00,
2013-02-26 22:22:00,37.0,36.0,29.65,NW,323,1.0,5.0,94,0.01,,,0.59,weatherlink.com 1.10,2013-02-27 03:22:00,
2013-02-26 22:37:00,35.0,34.0,29.64,East,82,1.0,4.0,95,0.00,,,0.59,weatherlink.com 1.10,2013-02-27 03:37:00,
2013-02-26 22:52:00,35.0,34.0,29.64,SSW,204,0.0,2.0,96,0.00,,,0.59,weatherlink.com 1.10,2013-02-27 03:52:00,
2013-02-26 23:07:00,35.2,34.0,29.64,SSW,196,1.0,2.0,96,0.01,,,0.60,weatherlink.com 1.10,2013-02-27 04:07:00,
2013-02-26 23:22:00,35.1,34.0,29.63,North,349,1.0,3.0,96,0.01,,,0.60,weatherlink.com 1.10,2013-02-27 04:22:00,
2013-02-26 23:38:00,34.7,34.0,29.63,North,9,1.0,5.0,96,0.01,,,0.60,weatherlink.com 1.10,2013-02-27 04:38:00,
2013-02-26 23:53:00,34.6,34.0,29.62,NNE,24,0.0,3.0,96,0.01,,,0.60,weatherlink.com 1.10,2013-02-27 04:53:00,